Regional Weather Roundup
Issued by NWS Wakefield, VA

Home | Current Version | Previous Version | Text Only | Print | Product List | Glossary Off
Versions: 1 2 3 4 5 6 7 8 9 10 11 12 13 14 15 16 17 18 19 20 21 22 23 24 25 26 27 28 29 30 31 32 33 34 35 36 37 38 39 40 41 42 43 44 45 46 47 48 49 50

000
ASUS41 KAKQ 260214
RWRAKQ

REGIONAL WEATHER ROUNDUP
NATIONAL WEATHER SERVICE WAKEFIELD VA
1000 PM EDT SAT APR 25 2015

Note: "fair" indicates few or no clouds below 12,000 feet with no
significant weather and/or obstructions to visibility. * = Denotes
station may not report precipitation (e.g., rain,snow,etc.),
thunder or fog.

VAZ042-051-052>054-056-260300-
NORTHERN VIRGINIA

CITY           SKY/WX    TMP DP  RH WIND       PRES   REMARKS
WASH NATIONAL  LGT RAIN  45  40  82 N12       29.77R
DULLES         LGT RAIN  41  38  89 NW10      29.77R FOG
FORT BELVOIR   LGT RAIN  43  39  87 NW6       29.76R FOG
QUANTICO       LGT RAIN  43  39  86 N7        29.78R
FREDERICKSBRG* LGT RAIN  44  44 100 NW6       29.76R
STAFFORD*      RAIN      41  32  70 NW5       29.81R
WARRENTON      DRIZZLE   42  42  99 CALM      29.76R
CULPEPER*      RAIN      43  41  93 CALM      29.76S
MANASSAS*      RAIN      43  43 100 CALM      29.77R
LEESBURG*      LGT RAIN  41  41 100 N5        29.78R
WINCHESTER     LGT RAIN  41  36  81 CALM      29.77R
FRONT ROYAL*   CLOUDY    39  39 100 NE5       29.73F
LURAY*         DRIZZLE   43  43 100 CALM      29.74R
$$

VAZ048-049-060>072-079>083-260300-
CENTRAL AND SOUTH CENTRAL VIRGINIA

CITY           SKY/WX    TMP DP  RH WIND       PRES   REMARKS
RICHMOND       LGT RAIN  46  45  93 CALM      29.72R FOG
CHESTERFIELD*  CLOUDY    46  34  61 E5        29.72F
PETERSBURG*    LGT RAIN  47  46  95 NE3       29.72R
HANOVER        RAIN      44  43  96 MISG      29.78R FOG
TAPPAHANNOCK*  RAIN      46  43  89 W3        29.75R
QUINTON*       CLOUDY    45  44  97 CALM      29.72R
CHARLOTTSVILLE CLOUDY    41  39  93 E3        29.72R
GORDONSVILLE*  CLOUDY    40  39  97 CALM      29.74F
ORANGE*        LGT RAIN  43  41  93 CALM      29.76R
LOUISA*        RAIN      43  41  93 CALM      29.72R
BUMPASS*       CLOUDY    42  42  97 E5        29.73R
FARMVILLE*     DRIZZLE   44  44 100 N8        29.71S
CREWE*         CLOUDY    45  43  95 CALM      29.71S
FORT PICKETT*  CLOUDY    44  43  98 NE6       29.69F
CHASE CITY*    CLOUDY    47  47 100 N3        29.70R
CLARKSVILLE*   CLOUDY    45  45 100 N7        29.68R
SOUTH HILL*    CLOUDY    44  43  97 N6        29.73S
LAWRENCEVILLE* CLOUDY    44  44 100 N3        29.69R
EMPORIA*       DRIZZLE   43  43 100 CALM      29.69F
$$

VAZ088>098-260300-
SOUTHEAST VIRGINIA

CITY           SKY/WX    TMP DP  RH WIND       PRES   REMARKS
NORFOLK        LGT RAIN  47  44  90 E8        29.67F FOG
VIRGINIA BEACH LGT RAIN  49  45  86 E10       29.67F
NORFOLK NAVAL  LGT RAIN  49  45  86 E14       29.69F FOG
WEST POINT*    CLOUDY    47  45  93 E7        29.71F
SALUDA*        CLOUDY    46  45  95 NW5       29.74R
NEWPORT NEWS   LGT RAIN  49  44  83 E8        29.69F
LANGLEY AFB    CLOUDY    47  45  94 E9        29.67F FOG
FORT EUSTIS    CLOUDY    46  46 100 E6        29.67F
WILLIAMSBURG*  CLOUDY    48  46  93 CALM      29.71R
HR EXEC AP*    CLOUDY    48  43  81 E6        29.69F
FRANKLIN*      CLOUDY    45  44  97 E5        29.68F FOG
WAKEFIELD      LGT RAIN  46  44  93 E6        29.69S FOG
$$

VAZ020-022-025-037-045-260300-
WEST CENTRAL AND SOUTHWEST VIRGINIA

CITY           SKY/WX    TMP DP  RH WIND       PRES   REMARKS
STAUNTON*      CLOUDY    41  39  93 NE5       29.72F
WAYNESBORO*    CLOUDY    38  38  99 CALM      29.69F
HOT SPRINGS VA SNOW      34  34 100 CALM      29.63R VSB<1/4
LYNCHBURG      CLOUDY    40  40 100 N7        29.73F FOG
DANVILLE       CLOUDY    46  43  89 NE8       29.70S FOG
SOUTH BOSTON*  CLOUDY    45  44  95 N6        29.70R
MARTINSVILLE   CLOUDY    44  44 100 NE5       29.72R
ROANOKE        CLOUDY    41  41 100 CALM      29.72F
BLACKSBURG     CLOUDY    38  38  99 NE5       29.70F FOG
DUBLIN*        LGT RAIN  42  42 100 E6        29.67F VSB 1
MARION*        RAIN      49  45  84 SE3       29.66R
HILLSVILLE*    CLOUDY    47  46  97 S3        29.64R
RICHLANDS*     FAIR      60  53  77 SW3       29.59R
WISE*          MOCLDY    61  57  88 SW6       29.59S
ABINGDON*      CLOUDY    60  50  68 CALM      29.58S
$$

MDZ021>025-VAZ099-100-260300-
SOUTHERN MARYLAND AND THE DELMARVA PENINSULA

CITY           SKY/WX    TMP DP  RH WIND       PRES   REMARKS
PATUXENT RIVER LGT RAIN  45  43  93 NE3       29.73R
BAY BRIDGE APT DRIZZLE  N/A N/A N/A W6        29.76R
LEONARDTOWN    CLOUDY    43  41  93 CALM      29.74S
DOVER          CLOUDY    47  37  69 SW7       29.69F
GEORGETOWN     LGT RAIN  44  43  96 CALM      29.72F FOG
EASTON         CLOUDY    46  46 100 NW5       29.78
CAMBRIDGE      CLOUDY    45  41  87 CALM      29.73R
SALISBURY      LGT RAIN  45  44  97 NE5       29.72F
OCEAN CITY     CLOUDY    45  43  93 NE5       29.73F
WALLOPS ISLAND CLOUDY    45  44  97 CALM      29.72F
ACCOMACK*      LGT RAIN  45  34  65 E3        29.71S
$$

NCZ012>017-030>032-260300-
NORTH CENTRAL AND EASTERN NORTH CAROLINA

CITY           SKY/WX    TMP DP  RH WIND       PRES   REMARKS
ROANOKE RAPIDS DRIZZLE   46  46 100 CALM      29.65F
RALEIGH        LGT RAIN  51  50  96 NE7       29.65S VSB 1/2
ELIZABETH CITY CLOUDY    50  48  93 E10       29.66F
AHOSKIE*       LGT RAIN  47  46  96 NE6       29.66S
EDENTON*       CLOUDY    49  48  96 NE6       29.65F
CURRITUCK*     CLOUDY    49  47  92 E7G16     29.68F
KILL DEVIL HLS DRIZZLE   52  51  95 E8        29.64F
MANTEO         RAIN      52  51  96 NE8       29.67F
CAPE HATTERAS  LGT RAIN  56  56 100 NE7       29.63F
TARBORO*       CLOUDY    55  54  95 CALM      29.65S
GOLDSBORO      CLOUDY    57 N/A N/A NE1       29.60F
WASHINGTON     DRIZZLE   54  53  96 NE6       29.63F
GREENVILLE     CLOUDY    55  55 100 CALM      29.66F
NEW BERN       CLOUDY    60  57  89 NE8       29.62F
WILMINGTON     CLOUDY    69  66  90 SW10      29.60S
$$

VAZ048-260300-
ELSEWHERE

CITY           SKY/WX    TMP DP  RH WIND       PRES   REMARKS
HARRISBURG PA  CLOUDY    51  24  34 CALM      29.71S
BALTIMORE      LGT RAIN  42  39  89 SW6       29.76R
ANNAPOLIS      LGT RAIN  45  41  86 W5        29.76R
ANDREWS AFB    LGT RAIN  43  42  96 N8        29.75R
PHILADELPHIA   CLOUDY    51  29  42 SW9       29.72F
HENDERSON NC   CLOUDY    47  46  95 N5        29.67R FOG
GREENSBORO     DRIZZLE   45  44  97 NE10      29.66S FOG
ROCKY MOUNT    CLOUDY    55  54  96 NE5       29.64S FOG
$$

VAZ100-260300-
MARINE

STATION/POSITION TIME  TEMP    WIND        PRES    WAVE   SWELL
                       AIR SEA DIR/SP/G            HT/PER HT/PER
                 (UTC) (F)     (DEG/KT/KT) (MB)    (FT/S) (FT/S)
BRANDYWINE LGT   0100   49 51  250/ 14/ 16 1007.4F
CAPE MAY NJ      0100   50 56  250/  9/ 11 1006.9F
LEWES DE         0100   46 51  240/  5/  7 1007.5F
15NM E FENWICK I 0150   45 47              1006.9F   1/11
OCEAN-CITY-INLET 0100   45 50  250/  3/  3 1007.3F
WACHAPREAGUE VA  0100   45 55   80/  4/  5 1007.1F
THOMAS POINT MD  0200   45 52  320/ 10/ 11 1008.2R
GOOSES REEF MD   0200   45 53  360/  6/  8   N/A     0
COVE POINT MD    0100   44      90/  5/  6 1007.1F
SOLOMONS ISLAND  0100      55                N/A
BISHOPS HEAD MD  0100   45 54   50/  2/  3 1006.3F
PINEY POINT MD   0100          140/  7/  8   N/A
CAMBRIDGE MD     0100   45 58  160/  2/  3 1006.6F
LEWISETTA VA     0100   46 56              1006.1F
RAPPAHANNOCK LGT 0100          110/ 12/ 13 1006.3F
YORK RVR RNG VA  0100   47      90/ 12/ 15 1005.3F
YORKTOWN VA      0100   48 59   90/ 13/ 14 1005.5F
JAMESTOWN VA     0200   46 64   60/  6/  8 1004.7S
DOMINION TERM VA 0100   47      80/ 15/ 18 1005.6F
KIPTOPEKE VA     0100      62   80/  9/ 13   N/A
CHES BAY BRIDGE  0100   46 54   60/ 18/ 21 1005.1F
CAPE HENRY VA    0100   46      70/ 21/ 23 1004.2F
CHESAPEAKE LGHT  0100   46      70/ 18/ 20 1006.4F
WILLOUBY STN VA  0100   47      80/ 15/ 17 1006.1F
S CRANEY ISL VA  0100           90/  9/ 12 1005.5F
CAPE HENRY BUOY  0128      51                N/A     2/ 6
1ST LANDING BUOY 0200                      1004.8F   2/ 3
OFFSHORE WE BUOY 0111      50                N/A     3/ 7   2/ 7
64NM E OF VA BCH 0150   53 59   60/ 17/ 19 1004.4F   3/ 7   2/ 7
DUCK PIER NC     0100   51 55   60/ 14/ 17 1004.1F
44056 DUCK FRF   0111      54                N/A     3/ 5
OREGON INLET NC  0100   52 58   60/  6/  9 1004.3F
HATTERAS NC      0100   59 65  100/  6/  7 1003.3F
DIAMOND SHLS NC  0150   63 75   50/  8/ 10 1002.9F   3/ 8   3/ 8
CAPE LOOKOUT NC  0200   64     310/  4/  5 1001.8F
$$


USA.gov is the U.S. government's official web portal to all federal, state and local government web resources and services.